Time,TemperatureF,DewpointF,PressureIn,WindDirection,WindDirectionDegrees,WindSpeedMPH,WindSpeedGustMPH,Humidity,HourlyPrecipIn,Conditions,Clouds,dailyrainin,SoftwareType,DateUTC
2013-03-16 00:07:00,48.5,26.2,30.12,NW,311,0.0,0.0,42,0.00,,---,0.00,VWS V14.00,2013-03-16 07:07:00,
2013-03-16 00:12:00,47.7,25.5,30.12,NW,311,0.0,0.0,42,0.00,,---,0.00,VWS V14.00,2013-03-16 07:12:00,
2013-03-16 00:17:00,47.8,26.1,30.12,NW,311,0.0,0.0,42,0.00,,---,0.00,VWS V14.00,2013-03-16 07:17:00,
2013-03-16 00:22:00,48.8,26.5,30.12,NW,311,0.0,0.0,42,0.00,,---,0.00,VWS V14.00,2013-03-16 07:22:00,
2013-03-16 00:27:00,49.7,26.7,30.12,NW,311,0.0,0.0,40,0.00,,---,0.00,VWS V14.00,2013-03-16 07:27:00,
2013-03-16 00:32:00,49.8,26.8,30.12,NW,311,0.0,0.0,40,0.00,,---,0.00,VWS V14.00,2013-03-16 07:32:00,
2013-03-16 00:37:00,49.7,26.7,30.12,NW,311,0.0,0.0,40,0.00,,---,0.00,VWS V14.00,2013-03-16 07:37:00,
2013-03-16 00:47:00,48.2,25.9,30.13,NW,311,0.0,0.0,42,0.00,,---,0.00,VWS V14.00,2013-03-16 07:47:00,
2013-03-16 00:52:00,47.3,26.2,30.13,NW,311,0.0,0.0,44,0.00,,---,0.00,VWS V14.00,2013-03-16 07:52:00,
2013-03-16 00:57:00,46.7,25.7,30.14,NW,311,0.0,0.0,44,0.00,,---,0.00,VWS V14.00,2013-03-16 07:57:00,
2013-03-16 01:02:00,46.4,26.0,30.14,NW,311,0.0,0.0,44,0.00,,---,0.00,VWS V14.00,2013-03-16 08:02:00,
2013-03-16 01:07:00,46.2,25.8,30.14,NW,311,0.0,0.0,44,0.00,,---,0.00,VWS V14.00,2013-03-16 08:07:00,
2013-03-16 01:12:00,45.9,25.0,30.14,NW,311,0.0,0.0,44,0.00,,---,0.00,VWS V14.00,2013-03-16 08:12:00,
2013-03-16 01:17:00,45.2,24.9,30.14,NW,311,0.0,0.0,44,0.00,,---,0.00,VWS V14.00,2013-03-16 08:17:00,
2013-03-16 01:22:00,44.8,24.5,30.14,NW,311,0.0,0.0,44,0.00,,---,0.00,VWS V14.00,2013-03-16 08:22:00,
2013-03-16 01:32:00,45.0,25.7,30.14,NW,311,0.0,0.0,46,0.00,,---,0.00,VWS V14.00,2013-03-16 08:32:00,
2013-03-16 01:37:00,45.4,24.5,30.14,NW,311,0.0,0.0,44,0.00,,---,0.00,VWS V14.00,2013-03-16 08:37:00,
2013-03-16 01:47:00,44.3,21.8,30.14,NW,311,0.0,5.0,40,0.00,,---,0.00,VWS V14.00,2013-03-16 08:47:00,
2013-03-16 01:52:00,44.1,21.6,30.14,NW,311,0.0,5.0,40,0.00,,---,0.00,VWS V14.00,2013-03-16 08:52:00,
2013-03-16 01:57:00,44.3,21.8,30.14,NW,311,0.0,2.0,40,0.00,,---,0.00,VWS V14.00,2013-03-16 08:57:00,
2013-03-16 02:02:00,45.0,21.9,30.14,NW,311,0.0,2.0,40,0.00,,---,0.00,VWS V14.00,2013-03-16 09:02:00,
2013-03-16 02:12:00,45.8,22.0,30.14,NW,311,0.0,6.0,38,0.00,,---,0.00,VWS V14.00,2013-03-16 09:12:00,
2013-03-16 02:17:00,46.4,21.9,30.14,NW,311,0.0,5.0,38,0.00,,---,0.00,VWS V14.00,2013-03-16 09:17:00,
2013-03-16 02:22:00,47.0,22.4,30.14,NW,311,0.0,0.0,38,0.00,,---,0.00,VWS V14.00,2013-03-16 09:22:00,
2013-03-16 02:27:00,47.2,22.0,30.14,NW,311,0.0,0.0,36,0.00,,---,0.00,VWS V14.00,2013-03-16 09:27:00,
2013-03-16 02:32:00,47.2,22.6,30.14,NW,311,0.0,0.0,38,0.00,,---,0.00,VWS V14.00,2013-03-16 09:32:00,
2013-03-16 02:37:00,47.5,22.9,30.14,NW,311,0.0,0.0,38,0.00,,---,0.00,VWS V14.00,2013-03-16 09:37:00,
2013-03-16 02:42:00,46.8,22.2,30.14,NW,311,0.0,0.0,38,0.00,,---,0.00,VWS V14.00,2013-03-16 09:42:00,
2013-03-16 02:47:00,44.6,23.2,30.14,NW,311,0.0,0.0,42,0.00,,---,0.00,VWS V14.00,2013-03-16 09:47:00,
2013-03-16 02:52:00,44.0,23.8,30.14,NW,311,0.0,0.0,44,0.00,,---,0.00,VWS V14.00,2013-03-16 09:52:00,
2013-03-16 02:57:00,43.6,24.5,30.13,NW,311,0.0,0.0,46,0.00,,---,0.00,VWS V14.00,2013-03-16 09:57:00,
2013-03-16 03:02:00,43.3,24.7,30.13,NW,311,0.0,0.0,48,0.00,,---,0.00,VWS V14.00,2013-03-16 10:02:00,
2013-03-16 03:07:00,43.1,24.5,30.13,NW,311,0.0,0.0,48,0.00,,---,0.00,VWS V14.00,2013-03-16 10:07:00,
2013-03-16 03:12:00,43.2,24.6,30.13,NW,311,0.0,0.0,48,0.00,,---,0.00,VWS V14.00,2013-03-16 10:12:00,
2013-03-16 03:17:00,43.0,24.4,30.13,NW,311,0.0,0.0,48,0.00,,---,0.00,VWS V14.00,2013-03-16 10:17:00,
2013-03-16 03:22:00,43.0,24.4,30.13,NW,311,0.0,0.0,48,0.00,,---,0.00,VWS V14.00,2013-03-16 10:22:00,
2013-03-16 03:27:00,43.3,24.7,30.13,NW,311,0.0,0.0,48,0.00,,---,0.00,VWS V14.00,2013-03-16 10:27:00,
2013-03-16 03:32:00,43.0,23.9,30.13,NW,311,0.0,0.0,46,0.00,,---,0.00,VWS V14.00,2013-03-16 10:32:00,
2013-03-16 03:37:00,42.5,22.9,30.13,NW,311,0.0,0.0,46,0.00,,---,0.00,VWS V14.00,2013-03-16 10:37:00,
2013-03-16 03:42:00,41.3,22.4,30.13,NW,311,0.0,0.0,46,0.00,,---,0.00,VWS V14.00,2013-03-16 10:42:00,
2013-03-16 03:47:00,41.2,22.8,30.13,NW,311,0.0,0.0,48,0.00,,---,0.00,VWS V14.00,2013-03-16 10:47:00,
2013-03-16 03:52:00,41.0,24.0,30.13,NW,311,0.0,0.0,50,0.00,,---,0.00,VWS V14.00,2013-03-16 10:52:00,
2013-03-16 03:57:00,40.9,23.0,30.12,NW,311,0.0,0.0,48,0.00,,---,0.00,VWS V14.00,2013-03-16 10:57:00,
2013-03-16 04:02:00,41.0,23.1,30.12,NW,311,0.0,0.0,48,0.00,,---,0.00,VWS V14.00,2013-03-16 11:02:00,
2013-03-16 04:07:00,40.8,22.9,30.12,NW,311,0.0,0.0,48,0.00,,---,0.00,VWS V14.00,2013-03-16 11:07:00,
2013-03-16 04:12:00,39.1,21.8,30.12,NW,311,0.0,0.0,50,0.00,,---,0.00,VWS V14.00,2013-03-16 11:12:00,
2013-03-16 04:17:00,38.0,21.7,30.12,NW,311,0.0,0.0,52,0.00,,---,0.00,VWS V14.00,2013-03-16 11:17:00,
2013-03-16 04:22:00,37.7,21.9,30.12,NW,311,0.0,0.0,52,0.00,,---,0.00,VWS V14.00,2013-03-16 11:22:00,
2013-03-16 04:27:00,38.0,22.2,30.12,NW,311,0.0,0.0,52,0.00,,---,0.00,VWS V14.00,2013-03-16 11:27:00,
2013-03-16 04:32:00,37.9,22.1,30.12,NW,311,0.0,0.0,52,0.00,,---,0.00,VWS V14.00,2013-03-16 11:32:00,
2013-03-16 04:37:00,37.7,21.9,30.12,NW,311,0.0,0.0,52,0.00,,---,0.00,VWS V14.00,2013-03-16 11:37:00,
2013-03-16 04:42:00,37.4,21.6,30.12,NW,311,0.0,0.0,52,0.00,,---,0.00,VWS V14.00,2013-03-16 11:42:00,
2013-03-16 04:47:00,38.0,22.2,30.12,NW,311,0.0,0.0,52,0.00,,---,0.00,VWS V14.00,2013-03-16 11:47:00,
2013-03-16 04:52:00,38.1,21.8,30.12,NW,311,0.0,0.0,52,0.00,,---,0.00,VWS V14.00,2013-03-16 11:52:00,
2013-03-16 04:57:00,38.4,21.6,30.12,NW,311,0.0,0.0,50,0.00,,---,0.00,VWS V14.00,2013-03-16 11:57:00,
2013-03-16 05:02:00,38.1,21.4,30.12,NW,311,0.0,0.0,50,0.00,,---,0.00,VWS V14.00,2013-03-16 12:02:00,
2013-03-16 05:07:00,38.7,21.9,30.12,NW,311,0.0,0.0,50,0.00,,---,0.00,VWS V14.00,2013-03-16 12:07:00,
2013-03-16 05:12:00,39.5,22.2,30.13,NW,311,0.0,0.0,50,0.00,,---,0.00,VWS V14.00,2013-03-16 12:12:00,
2013-03-16 05:17:00,41.0,22.6,30.13,NW,311,0.0,0.0,48,0.00,,---,0.00,VWS V14.00,2013-03-16 12:17:00,
2013-03-16 05:22:00,41.9,22.4,30.13,NW,311,0.0,0.0,46,0.00,,---,0.00,VWS V14.00,2013-03-16 12:22:00,
2013-03-16 05:27:00,42.5,22.4,30.12,NW,311,0.0,0.0,44,0.00,,---,0.00,VWS V14.00,2013-03-16 12:27:00,
2013-03-16 05:32:00,42.5,22.4,30.12,NW,311,0.0,0.0,44,0.00,,---,0.00,VWS V14.00,2013-03-16 12:32:00,
2013-03-16 05:37:00,41.6,21.6,30.12,NW,311,0.0,0.0,44,0.00,,---,0.00,VWS V14.00,2013-03-16 12:37:00,
2013-03-16 05:42:00,40.2,21.3,30.12,NW,311,0.0,0.0,46,0.00,,---,0.00,VWS V14.00,2013-03-16 12:42:00,
2013-03-16 05:47:00,39.8,22.0,30.12,NW,311,0.0,0.0,48,0.00,,---,0.00,VWS V14.00,2013-03-16 12:47:00,
2013-03-16 05:52:00,39.6,21.8,30.13,NW,311,0.0,0.0,48,0.00,,---,0.00,VWS V14.00,2013-03-16 12:52:00,
2013-03-16 05:57:00,40.1,22.2,30.12,NW,311,0.0,0.0,48,0.00,,---,0.00,VWS V14.00,2013-03-16 12:57:00,
2013-03-16 06:02:00,41.2,22.3,30.12,NW,311,0.0,0.0,46,0.00,,---,0.00,VWS V14.00,2013-03-16 13:02:00,
2013-03-16 06:07:00,41.3,22.4,30.13,NW,311,0.0,0.0,46,0.00,,---,0.00,VWS V14.00,2013-03-16 13:07:00,
2013-03-16 06:17:00,40.5,22.1,30.13,NW,311,0.0,0.0,48,0.00,,---,0.00,VWS V14.00,2013-03-16 13:17:00,
2013-03-16 06:22:00,40.6,22.2,30.13,NW,311,0.0,0.0,48,0.00,,---,0.00,VWS V14.00,2013-03-16 13:22:00,
2013-03-16 06:27:00,40.9,22.0,30.12,NW,311,0.0,0.0,46,0.00,,---,0.00,VWS V14.00,2013-03-16 13:27:00,
2013-03-16 06:32:00,41.3,22.4,30.12,NW,311,0.0,0.0,46,0.00,,---,0.00,VWS V14.00,2013-03-16 13:32:00,
2013-03-16 06:37:00,40.2,21.3,30.12,NW,311,0.0,0.0,46,0.00,,---,0.00,VWS V14.00,2013-03-16 13:37:00,
2013-03-16 06:42:00,37.9,20.7,30.12,NW,311,0.0,0.0,50,0.00,,---,0.00,VWS V14.00,2013-03-16 13:42:00,
2013-03-16 06:52:00,37.2,21.4,30.12,NW,311,0.0,0.0,52,0.00,,---,0.00,VWS V14.00,2013-03-16 13:52:00,
2013-03-16 06:57:00,37.3,21.5,30.12,NW,311,0.0,0.0,52,0.00,,---,0.00,VWS V14.00,2013-03-16 13:57:00,
2013-03-16 07:07:00,38.2,21.5,30.11,NW,311,0.0,0.0,50,0.00,,---,0.00,VWS V14.00,2013-03-16 14:07:00,
2013-03-16 07:12:00,38.7,21.4,30.12,NW,311,0.0,0.0,50,0.00,,---,0.00,VWS V14.00,2013-03-16 14:12:00,
2013-03-16 07:17:00,38.9,21.6,30.12,NW,311,0.0,0.0,50,0.00,,---,0.00,VWS V14.00,2013-03-16 14:17:00,
2013-03-16 07:22:00,38.6,21.4,30.13,NW,311,0.0,0.0,50,0.00,,---,0.00,VWS V14.00,2013-03-16 14:22:00,
2013-03-16 07:27:00,37.9,21.2,30.13,NW,311,0.0,0.0,50,0.00,,---,0.00,VWS V14.00,2013-03-16 14:27:00,
2013-03-16 07:32:00,37.7,21.5,30.13,NW,311,0.0,0.0,52,0.00,,---,0.00,VWS V14.00,2013-03-16 14:32:00,
2013-03-16 07:37:00,38.0,21.7,30.13,NW,311,0.0,0.0,52,0.00,,---,0.00,VWS V14.00,2013-03-16 14:37:00,
2013-03-16 07:42:00,37.9,21.6,30.13,NW,311,0.0,0.0,52,0.00,,---,0.00,VWS V14.00,2013-03-16 14:42:00,
2013-03-16 07:47:00,37.1,21.3,30.13,NW,311,0.0,4.0,52,0.00,,---,0.00,VWS V14.00,2013-03-16 14:47:00,
2013-03-16 07:52:00,37.2,21.9,30.13,NW,311,0.0,2.0,54,0.00,,---,0.00,VWS V14.00,2013-03-16 14:52:00,
2013-03-16 07:57:00,37.6,22.2,30.13,NW,311,0.0,0.0,54,0.00,,---,0.00,VWS V14.00,2013-03-16 14:57:00,
2013-03-16 08:07:00,38.6,22.7,30.13,NW,311,0.0,0.0,52,0.00,,---,0.00,VWS V14.00,2013-03-16 15:07:00,
2013-03-16 08:17:00,40.6,23.7,30.13,NW,311,0.0,0.0,50,0.00,,---,0.00,VWS V14.00,2013-03-16 15:17:00,
2013-03-16 08:27:00,42.7,24.6,30.13,NW,311,0.0,0.0,48,0.00,,---,0.00,VWS V14.00,2013-03-16 15:27:00,
2013-03-16 08:37:00,44.6,24.9,30.13,NW,311,0.0,0.0,46,0.00,,---,0.00,VWS V14.00,2013-03-16 15:37:00,
2013-03-16 08:42:00,45.8,24.9,30.12,NW,311,0.0,0.0,44,0.00,,---,0.00,VWS V14.00,2013-03-16 15:42:00,
2013-03-16 08:52:00,47.4,24.6,30.13,NW,311,0.0,0.0,40,0.00,,---,0.00,VWS V14.00,2013-03-16 15:52:00,
2013-03-16 08:57:00,47.4,24.0,30.14,NW,311,0.0,0.0,40,0.00,,---,0.00,VWS V14.00,2013-03-16 15:57:00,
2013-03-16 09:02:00,46.9,24.7,30.13,NW,311,0.0,0.0,42,0.00,,---,0.00,VWS V14.00,2013-03-16 16:02:00,
2013-03-16 09:12:00,46.5,22.6,30.13,NW,311,0.0,0.0,38,0.00,,---,0.00,VWS V14.00,2013-03-16 16:12:00,
2013-03-16 09:22:00,46.5,23.2,30.13,NW,311,0.0,0.0,40,0.00,,---,0.00,VWS V14.00,2013-03-16 16:22:00,
2013-03-16 09:27:00,47.1,23.7,30.13,NW,311,0.0,0.0,40,0.00,,---,0.00,VWS V14.00,2013-03-16 16:27:00,
2013-03-16 09:37:00,48.4,23.0,30.13,NW,311,0.0,0.0,36,0.00,,---,0.00,VWS V14.00,2013-03-16 16:37:00,
2013-03-16 09:42:00,48.6,22.5,30.13,NW,311,0.0,0.0,36,0.00,,---,0.00,VWS V14.00,2013-03-16 16:42:00,
2013-03-16 09:52:00,49.6,23.4,30.13,NW,311,0.0,0.0,36,0.00,,---,0.00,VWS V14.00,2013-03-16 16:52:00,
2013-03-16 09:57:00,49.9,22.3,30.12,NW,311,0.0,0.0,34,0.00,,---,0.00,VWS V14.00,2013-03-16 16:57:00,
2013-03-16 10:07:00,50.5,22.8,30.12,NW,311,0.0,0.0,34,0.00,,---,0.00,VWS V14.00,2013-03-16 17:07:00,
2013-03-16 10:12:00,51.1,23.4,30.12,NW,311,0.0,0.0,34,0.00,,---,0.00,VWS V14.00,2013-03-16 17:12:00,
2013-03-16 10:17:00,51.4,22.2,30.12,NW,311,0.0,0.0,32,0.00,,---,0.00,VWS V14.00,2013-03-16 17:17:00,
2013-03-16 10:22:00,51.4,22.2,30.13,NW,311,0.0,7.0,32,0.00,,---,0.00,VWS V14.00,2013-03-16 17:22:00,
2013-03-16 10:32:00,51.9,23.4,30.12,NW,311,0.0,0.0,32,0.00,,---,0.00,VWS V14.00,2013-03-16 17:32:00,
2013-03-16 10:42:00,52.7,23.3,30.12,NW,311,0.0,0.0,32,0.00,,---,0.00,VWS V14.00,2013-03-16 17:42:00,
2013-03-16 10:52:00,53.7,23.4,30.12,NW,311,0.0,0.0,30,0.00,,---,0.00,VWS V14.00,2013-03-16 17:52:00,
2013-03-16 10:57:00,54.7,24.3,30.12,NW,311,0.0,0.0,30,0.00,,---,0.00,VWS V14.00,2013-03-16 17:57:00,
2013-03-16 11:07:00,55.3,23.2,30.12,NW,311,0.0,2.0,28,0.00,,---,0.00,VWS V14.00,2013-03-16 18:07:00,
2013-03-16 11:12:00,55.7,23.5,30.13,NW,311,0.0,0.0,28,0.00,,---,0.00,VWS V14.00,2013-03-16 18:12:00,
2013-03-16 11:17:00,55.9,22.9,30.12,NW,311,0.0,1.0,28,0.00,,---,0.00,VWS V14.00,2013-03-16 18:17:00,
2013-03-16 11:22:00,56.3,22.3,30.12,NW,311,0.0,0.0,26,0.00,,---,0.00,VWS V14.00,2013-03-16 18:22:00,
2013-03-16 11:32:00,57.8,21.8,30.12,NW,311,0.0,0.0,24,0.00,,---,0.00,VWS V14.00,2013-03-16 18:32:00,
2013-03-16 11:37:00,58.5,22.4,30.12,NW,311,0.0,2.0,24,0.00,,---,0.00,VWS V14.00,2013-03-16 18:37:00,
2013-03-16 11:42:00,59.1,20.8,30.12,NW,311,0.0,10.0,22,0.00,,---,0.00,VWS V14.00,2013-03-16 18:42:00,
2013-03-16 11:47:00,59.0,19.7,30.12,NW,311,0.0,10.0,22,0.00,,---,0.00,VWS V14.00,2013-03-16 18:47:00,
2013-03-16 11:52:00,59.0,19.7,30.11,NW,311,5.0,8.0,22,0.00,,---,0.00,VWS V14.00,2013-03-16 18:52:00,
2013-03-16 12:02:00,59.5,19.0,30.11,NW,311,0.0,7.0,20,0.00,,---,0.00,VWS V14.00,2013-03-16 19:02:00,
2013-03-16 12:07:00,59.6,19.1,30.11,NW,311,0.0,5.0,20,0.00,,---,0.00,VWS V14.00,2013-03-16 19:07:00,
2013-03-16 12:12:00,59.7,18.0,30.10,NW,311,0.0,10.0,20,0.00,,---,0.00,VWS V14.00,2013-03-16 19:12:00,
2013-03-16 12:17:00,59.8,19.2,30.10,NW,311,0.0,8.0,20,0.00,,---,0.00,VWS V14.00,2013-03-16 19:17:00,
2013-03-16 12:22:00,60.0,18.2,30.10,NW,311,0.0,5.0,20,0.00,,---,0.00,VWS V14.00,2013-03-16 19:22:00,
2013-03-16 12:32:00,61.0,20.2,30.10,NW,311,0.0,0.0,20,0.00,,---,0.00,VWS V14.00,2013-03-16 19:32:00,
2013-03-16 12:37:00,61.3,19.3,30.10,NW,306,0.0,14.0,20,0.00,,---,0.00,VWS V14.00,2013-03-16 19:37:00,
2013-03-16 12:42:00,61.9,18.6,30.10,NW,306,0.0,8.0,18,0.00,,---,0.00,VWS V14.00,2013-03-16 19:42:00,
2013-03-16 12:47:00,62.2,17.5,30.09,NW,306,0.0,0.0,18,0.00,,---,0.00,VWS V14.00,2013-03-16 19:47:00,
2013-03-16 12:57:00,62.7,18.0,30.08,NW,306,4.0,5.0,18,0.00,,---,0.00,VWS V14.00,2013-03-16 19:57:00,
2013-03-16 13:02:00,62.8,16.7,30.08,WNW,300,0.0,9.0,16,0.00,,---,0.00,VWS V14.00,2013-03-16 20:02:00,
2013-03-16 13:07:00,63.0,15.4,30.08,WNW,300,0.0,0.0,16,0.00,,---,0.00,VWS V14.00,2013-03-16 20:07:00,
2013-03-16 13:17:00,64.0,16.2,30.08,West,275,10.0,12.0,16,0.00,,---,0.00,VWS V14.00,2013-03-16 20:17:00,
2013-03-16 13:22:00,63.1,15.5,30.07,West,275,7.0,12.0,16,0.00,,---,0.00,VWS V14.00,2013-03-16 20:22:00,
2013-03-16 13:27:00,62.6,15.1,30.07,West,275,6.0,13.0,16,0.00,,---,0.00,VWS V14.00,2013-03-16 20:27:00,
2013-03-16 13:37:00,63.0,16.8,30.07,West,277,11.0,13.0,16,0.00,,---,0.00,VWS V14.00,2013-03-16 20:37:00,
2013-03-16 13:42:00,63.1,16.9,30.07,West,279,4.0,14.0,16,0.00,,---,0.00,VWS V14.00,2013-03-16 20:42:00,
2013-03-16 13:47:00,63.2,15.6,30.06,West,279,1.0,7.0,16,0.00,,---,0.00,VWS V14.00,2013-03-16 20:47:00,
2013-03-16 13:52:00,63.2,15.6,30.06,West,279,8.0,13.0,16,0.00,,---,0.00,VWS V14.00,2013-03-16 20:52:00,
2013-03-16 13:57:00,62.8,16.7,30.06,West,275,11.0,16.0,16,0.00,,---,0.00,VWS V14.00,2013-03-16 20:57:00,
2013-03-16 14:02:00,63.1,14.0,30.06,WSW,258,18.0,28.0,14,0.00,,---,0.00,VWS V14.00,2013-03-16 21:02:00,
2013-03-16 14:07:00,62.5,13.5,30.06,West,260,13.0,24.0,14,0.00,,---,0.00,VWS V14.00,2013-03-16 21:07:00,
2013-03-16 14:12:00,61.9,13.0,30.06,West,264,6.0,25.0,14,0.00,,---,0.00,VWS V14.00,2013-03-16 21:12:00,
2013-03-16 14:17:00,62.2,13.2,30.05,West,259,12.0,24.0,14,0.00,,---,0.00,VWS V14.00,2013-03-16 21:17:00,
2013-03-16 14:22:00,63.2,15.6,30.05,West,279,15.0,26.0,16,0.00,,---,0.00,VWS V14.00,2013-03-16 21:22:00,
2013-03-16 14:32:00,62.6,15.1,30.05,West,275,19.0,28.0,16,0.00,,---,0.00,VWS V14.00,2013-03-16 21:32:00,
2013-03-16 14:37:00,62.3,16.3,30.05,WNW,290,18.0,24.0,16,0.00,,---,0.00,VWS V14.00,2013-03-16 21:37:00,
2013-03-16 14:42:00,61.3,15.5,30.05,WNW,294,15.0,23.0,16,0.00,,---,0.00,VWS V14.00,2013-03-16 21:42:00,
2013-03-16 14:47:00,61.5,17.0,30.04,NW,311,18.0,24.0,18,0.00,,---,0.00,VWS V14.00,2013-03-16 21:47:00,
2013-03-16 14:52:00,61.8,18.5,30.05,West,276,12.0,23.0,18,0.00,,---,0.00,VWS V14.00,2013-03-16 21:52:00,
2013-03-16 14:57:00,62.6,20.4,30.05,WSW,251,10.0,18.0,20,0.00,,---,0.00,VWS V14.00,2013-03-16 21:57:00,
2013-03-16 15:02:00,62.7,19.2,30.04,West,271,15.0,21.0,18,0.00,,---,0.00,VWS V14.00,2013-03-16 22:02:00,
2013-03-16 15:07:00,62.9,20.6,30.04,West,264,11.0,18.0,20,0.00,,---,0.00,VWS V14.00,2013-03-16 22:07:00,
2013-03-16 15:12:00,62.9,20.6,30.04,West,281,12.0,21.0,20,0.00,,---,0.00,VWS V14.00,2013-03-16 22:12:00,
2013-03-16 15:17:00,63.4,19.8,30.04,West,275,16.0,16.0,18,0.00,,---,0.00,VWS V14.00,2013-03-16 22:17:00,
2013-03-16 15:22:00,63.1,19.6,30.04,WSW,256,19.0,22.0,18,0.00,,---,0.00,VWS V14.00,2013-03-16 22:22:00,
2013-03-16 15:27:00,62.9,20.6,30.05,WSW,258,24.0,24.0,20,0.00,,---,0.00,VWS V14.00,2013-03-16 22:27:00,
2013-03-16 15:32:00,61.5,19.5,30.05,West,269,18.0,24.0,20,0.00,,---,0.00,VWS V14.00,2013-03-16 22:32:00,
2013-03-16 15:37:00,61.4,18.2,30.05,West,270,12.0,22.0,18,0.00,,---,0.00,VWS V14.00,2013-03-16 22:37:00,
2013-03-16 15:42:00,62.2,18.8,30.05,WNW,290,13.0,20.0,18,0.00,,---,0.00,VWS V14.00,2013-03-16 22:42:00,
2013-03-16 15:47:00,62.0,18.7,30.05,West,262,10.0,19.0,18,0.00,,---,0.00,VWS V14.00,2013-03-16 22:47:00,
2013-03-16 15:52:00,62.8,19.3,30.05,West,279,11.0,16.0,18,0.00,,---,0.00,VWS V14.00,2013-03-16 22:52:00,
2013-03-16 15:57:00,62.3,20.1,30.04,West,271,10.0,18.0,20,0.00,,---,0.00,VWS V14.00,2013-03-16 22:57:00,
2013-03-16 16:02:00,62.4,20.2,30.04,West,271,13.0,15.0,20,0.00,,---,0.00,VWS V14.00,2013-03-16 23:02:00,
2013-03-16 16:07:00,63.1,22.0,30.05,WSW,245,12.0,31.0,20,0.00,,---,0.00,VWS V14.00,2013-03-16 23:07:00,
2013-03-16 16:12:00,62.8,21.7,30.04,West,261,18.0,26.0,20,0.00,,---,0.00,VWS V14.00,2013-03-16 23:12:00,
2013-03-16 16:17:00,61.4,21.7,30.05,West,273,14.0,19.0,22,0.00,,---,0.00,VWS V14.00,2013-03-16 23:17:00,
2013-03-16 16:22:00,61.1,21.5,30.05,West,279,14.0,19.0,22,0.00,,---,0.00,VWS V14.00,2013-03-16 23:22:00,
2013-03-16 16:27:00,61.2,22.6,30.05,WNW,294,14.0,18.0,22,0.00,,---,0.00,VWS V14.00,2013-03-16 23:27:00,
2013-03-16 16:32:00,60.3,21.9,30.05,WNW,287,11.0,19.0,22,0.00,,---,0.00,VWS V14.00,2013-03-16 23:32:00,
2013-03-16 16:37:00,60.0,23.6,30.05,West,281,11.0,18.0,24,0.00,,---,0.00,VWS V14.00,2013-03-16 23:37:00,
2013-03-16 16:42:00,60.5,22.0,30.05,West,277,13.0,19.0,22,0.00,,---,0.00,VWS V14.00,2013-03-16 23:42:00,
2013-03-16 16:47:00,60.4,21.9,30.05,WNW,299,8.0,21.0,22,0.00,,---,0.00,VWS V14.00,2013-03-16 23:47:00,
2013-03-16 16:52:00,60.5,23.0,30.05,WNW,292,12.0,16.0,24,0.00,,---,0.00,VWS V14.00,2013-03-16 23:52:00,
2013-03-16 16:57:00,60.4,23.0,30.05,WNW,300,5.0,21.0,24,0.00,,---,0.00,VWS V14.00,2013-03-16 23:57:00,
2013-03-16 17:02:00,59.9,22.5,30.05,WNW,290,10.0,14.0,24,0.00,,---,0.00,VWS V14.00,2013-03-17 00:02:00,
2013-03-16 17:07:00,59.8,20.4,30.05,WNW,290,12.0,22.0,22,0.00,,---,0.00,VWS V14.00,2013-03-17 00:07:00,
2013-03-16 17:12:00,59.0,19.7,30.05,WNW,295,22.0,22.0,22,0.00,,---,0.00,VWS V14.00,2013-03-17 00:12:00,
2013-03-16 17:17:00,59.0,20.8,30.05,West,275,14.0,22.0,22,0.00,,---,0.00,VWS V14.00,2013-03-17 00:17:00,
2013-03-16 17:22:00,59.1,20.8,30.05,West,259,11.0,25.0,22,0.00,,---,0.00,VWS V14.00,2013-03-17 00:22:00,
2013-03-16 17:27:00,59.2,22.0,30.05,West,267,9.0,16.0,24,0.00,,---,0.00,VWS V14.00,2013-03-17 00:27:00,
2013-03-16 17:32:00,59.1,21.9,30.05,WNW,295,11.0,23.0,24,0.00,,---,0.00,VWS V14.00,2013-03-17 00:32:00,
2013-03-16 17:37:00,58.4,22.3,30.05,West,280,13.0,19.0,24,0.00,,---,0.00,VWS V14.00,2013-03-17 00:37:00,
2013-03-16 17:42:00,57.9,22.8,30.05,WNW,300,12.0,22.0,26,0.00,,---,0.00,VWS V14.00,2013-03-17 00:42:00,
2013-03-16 17:47:00,57.6,21.6,30.05,WNW,294,16.0,21.0,24,0.00,,---,0.00,VWS V14.00,2013-03-17 00:47:00,
2013-03-16 17:52:00,57.2,21.2,30.05,WNW,300,11.0,22.0,24,0.00,,---,0.00,VWS V14.00,2013-03-17 00:52:00,
2013-03-16 17:57:00,57.1,22.1,30.05,NW,307,9.0,18.0,26,0.00,,---,0.00,VWS V14.00,2013-03-17 00:57:00,
2013-03-16 18:02:00,57.1,22.1,30.05,NW,309,16.0,23.0,26,0.00,,---,0.00,VWS V14.00,2013-03-17 01:02:00,
2013-03-16 18:08:00,56.6,22.6,30.05,WNW,284,13.0,24.0,26,0.00,,---,0.00,VWS V14.00,2013-03-17 01:08:00,
2013-03-16 18:17:00,56.0,21.2,30.05,NW,315,15.0,18.0,26,0.00,,---,0.00,VWS V14.00,2013-03-17 01:17:00,
2013-03-16 18:22:00,55.5,20.7,30.05,NW,320,10.0,19.0,26,0.00,,---,0.00,VWS V14.00,2013-03-17 01:22:00,
2013-03-16 18:27:00,55.0,20.3,30.05,NNW,331,9.0,18.0,26,0.00,,---,0.00,VWS V14.00,2013-03-17 01:27:00,
2013-03-16 18:32:00,54.7,21.0,30.05,NNW,329,10.0,15.0,26,0.00,,---,0.00,VWS V14.00,2013-03-17 01:32:00,
2013-03-16 18:37:00,54.4,19.8,30.05,North,5,13.0,19.0,26,0.00,,---,0.00,VWS V14.00,2013-03-17 01:37:00,
2013-03-16 18:42:00,54.0,19.5,30.05,North,360,14.0,19.0,26,0.00,,---,0.00,VWS V14.00,2013-03-17 01:42:00,
2013-03-16 18:47:00,53.6,20.0,30.06,NNW,345,14.0,18.0,26,0.00,,---,0.00,VWS V14.00,2013-03-17 01:47:00,
2013-03-16 18:52:00,53.3,19.8,30.06,NNW,341,9.0,18.0,26,0.00,,---,0.00,VWS V14.00,2013-03-17 01:52:00,
2013-03-16 18:57:00,53.0,19.5,30.06,NNW,340,11.0,16.0,26,0.00,,---,0.00,VWS V14.00,2013-03-17 01:57:00,
2013-03-16 19:02:00,52.9,19.4,30.06,NNW,340,9.0,12.0,26,0.00,,---,0.00,VWS V14.00,2013-03-17 02:02:00,
2013-03-16 19:07:00,52.7,19.2,30.06,NNW,338,10.0,19.0,26,0.00,,---,0.00,VWS V14.00,2013-03-17 02:07:00,
2013-03-16 19:12:00,52.4,19.0,30.06,NNW,346,13.0,18.0,26,0.00,,---,0.00,VWS V14.00,2013-03-17 02:12:00,
2013-03-16 19:17:00,52.2,19.7,30.06,North,355,11.0,20.0,28,0.00,,---,0.00,VWS V14.00,2013-03-17 02:17:00,
2013-03-16 19:22:00,51.8,19.3,30.06,North,360,16.0,22.0,28,0.00,,---,0.00,VWS V14.00,2013-03-17 02:22:00,
2013-03-16 19:27:00,51.6,20.0,30.07,NNW,348,12.0,21.0,28,0.00,,---,0.00,VWS V14.00,2013-03-17 02:27:00,
2013-03-16 19:32:00,51.5,19.9,30.07,NNW,333,13.0,16.0,28,0.00,,---,0.00,VWS V14.00,2013-03-17 02:32:00,
2013-03-16 19:42:00,51.3,21.3,30.07,NNW,329,5.0,11.0,30,0.00,,---,0.00,VWS V14.00,2013-03-17 02:42:00,
2013-03-16 19:47:00,51.4,22.2,30.07,NNW,329,4.0,14.0,32,0.00,,---,0.00,VWS V14.00,2013-03-17 02:47:00,
2013-03-16 19:52:00,51.5,21.5,30.06,West,272,9.0,16.0,30,0.00,,---,0.00,VWS V14.00,2013-03-17 02:52:00,
2013-03-16 19:57:00,50.9,21.0,30.07,WNW,303,9.0,15.0,30,0.00,,---,0.00,VWS V14.00,2013-03-17 02:57:00,
2013-03-16 20:02:00,50.5,20.6,30.07,WNW,300,13.0,20.0,30,0.00,,---,0.00,VWS V14.00,2013-03-17 03:02:00,
2013-03-16 20:07:00,50.5,21.4,30.07,NE,37,16.0,22.0,32,0.00,,---,0.00,VWS V14.00,2013-03-17 03:07:00,
2013-03-16 20:12:00,50.6,21.5,30.07,NE,43,6.0,18.0,32,0.00,,---,0.00,VWS V14.00,2013-03-17 03:12:00,
2013-03-16 20:17:00,50.3,21.2,30.08,NNW,343,18.0,19.0,32,0.00,,---,0.00,VWS V14.00,2013-03-17 03:17:00,
2013-03-16 20:22:00,50.5,21.4,30.08,North,360,10.0,19.0,32,0.00,,---,0.00,VWS V14.00,2013-03-17 03:22:00,
2013-03-16 20:32:00,50.7,21.6,30.09,NNW,340,13.0,19.0,32,0.00,,---,0.00,VWS V14.00,2013-03-17 03:32:00,
2013-03-16 20:37:00,50.6,20.7,30.09,NNW,338,7.0,13.0,30,0.00,,---,0.00,VWS V14.00,2013-03-17 03:37:00,
2013-03-16 20:42:00,50.8,21.6,30.08,WSW,242,7.0,27.0,32,0.00,,---,0.00,VWS V14.00,2013-03-17 03:42:00,
2013-03-16 20:47:00,50.7,21.6,30.08,West,279,15.0,19.0,32,0.00,,---,0.00,VWS V14.00,2013-03-17 03:47:00,
2013-03-16 20:52:00,50.5,20.6,30.08,WSW,250,11.0,19.0,30,0.00,,---,0.00,VWS V14.00,2013-03-17 03:52:00,
2013-03-16 20:57:00,50.5,20.6,30.08,SW,229,14.0,18.0,30,0.00,,---,0.00,VWS V14.00,2013-03-17 03:57:00,
2013-03-16 21:02:00,50.5,21.4,30.08,West,275,11.0,23.0,32,0.00,,---,0.00,VWS V14.00,2013-03-17 04:02:00,
2013-03-16 21:07:00,49.6,22.0,30.08,WNW,289,13.0,21.0,34,0.00,,---,0.00,VWS V14.00,2013-03-17 04:07:00,
2013-03-16 21:12:00,48.9,21.4,30.07,West,269,22.0,29.0,34,0.00,,---,0.00,VWS V14.00,2013-03-17 04:12:00,
2013-03-16 21:17:00,50.1,21.8,30.07,SSW,209,27.0,33.0,32,0.00,,---,0.00,VWS V14.00,2013-03-17 04:17:00,
2013-03-16 21:22:00,49.9,21.6,30.06,West,272,18.0,27.0,32,0.00,,---,0.00,VWS V14.00,2013-03-17 04:22:00,
2013-03-16 21:27:00,49.4,21.2,30.05,West,263,25.0,25.0,32,0.00,,---,0.00,VWS V14.00,2013-03-17 04:27:00,
2013-03-16 21:32:00,49.4,20.4,30.05,West,279,15.0,28.0,32,0.00,,---,0.00,VWS V14.00,2013-03-17 04:32:00,
2013-03-16 21:37:00,49.2,21.0,30.05,West,273,24.0,25.0,32,0.00,,---,0.00,VWS V14.00,2013-03-17 04:37:00,
2013-03-16 21:42:00,49.4,21.2,30.06,West,269,25.0,31.0,32,0.00,,---,0.00,VWS V14.00,2013-03-17 04:42:00,
2013-03-16 21:47:00,49.2,21.0,30.05,WNW,287,20.0,33.0,32,0.00,,---,0.00,VWS V14.00,2013-03-17 04:47:00,
2013-03-16 21:52:00,49.7,20.7,30.05,West,277,24.0,36.0,32,0.00,,---,0.00,VWS V14.00,2013-03-17 04:52:00,
2013-03-16 21:57:00,49.6,20.6,30.06,West,267,20.0,31.0,32,0.00,,---,0.00,VWS V14.00,2013-03-17 04:57:00,
2013-03-16 22:02:00,49.9,20.1,30.08,WSW,238,5.0,26.0,30,0.00,,---,0.00,VWS V14.00,2013-03-17 05:02:00,
2013-03-16 22:07:00,49.1,20.9,30.09,SSE,167,6.0,19.0,32,0.00,,---,0.00,VWS V14.00,2013-03-17 05:07:00,
2013-03-16 22:12:00,48.1,20.7,30.08,SE,129,8.0,18.0,34,0.00,,---,0.00,VWS V14.00,2013-03-17 05:12:00,
2013-03-16 22:17:00,47.9,20.5,30.08,ESE,115,5.0,9.0,34,0.00,,---,0.00,VWS V14.00,2013-03-17 05:17:00,
2013-03-16 22:22:00,47.6,21.0,30.08,East,82,9.0,12.0,34,0.00,,---,0.00,VWS V14.00,2013-03-17 05:22:00,
2013-03-16 22:27:00,47.2,20.6,30.08,ENE,58,10.0,13.0,34,0.00,,---,0.00,VWS V14.00,2013-03-17 05:27:00,
2013-03-16 22:32:00,47.6,21.0,30.08,ENE,59,9.0,12.0,34,0.00,,---,0.00,VWS V14.00,2013-03-17 05:32:00,
2013-03-16 22:37:00,46.7,20.2,30.09,ENE,59,1.0,8.0,34,0.00,,---,0.00,VWS V14.00,2013-03-17 05:37:00,
2013-03-16 22:42:00,45.8,20.7,30.09,ENE,59,0.0,4.0,36,0.00,,---,0.00,VWS V14.00,2013-03-17 05:42:00,
2013-03-16 22:47:00,45.4,20.4,30.09,ENE,59,0.0,0.0,36,0.00,,---,0.00,VWS V14.00,2013-03-17 05:47:00,
2013-03-16 22:52:00,45.4,20.4,30.09,ENE,59,0.0,0.0,36,0.00,,---,0.00,VWS V14.00,2013-03-17 05:52:00,
2013-03-16 22:57:00,45.6,20.5,30.08,ENE,59,0.0,0.0,36,0.00,,---,0.00,VWS V14.00,2013-03-17 05:57:00,
2013-03-16 23:02:00,44.0,19.7,30.08,ENE,59,0.0,0.0,38,0.00,,---,0.00,VWS V14.00,2013-03-17 06:02:00,
2013-03-16 23:07:00,43.2,19.6,30.09,ENE,59,0.0,0.0,38,0.00,,---,0.00,VWS V14.00,2013-03-17 06:07:00,
2013-03-16 23:12:00,42.9,20.0,30.08,ENE,59,0.0,0.0,40,0.00,,---,0.00,VWS V14.00,2013-03-17 06:12:00,
2013-03-16 23:17:00,43.3,19.7,30.09,ENE,59,0.0,0.0,38,0.00,,---,0.00,VWS V14.00,2013-03-17 06:17:00,
2013-03-16 23:22:00,43.3,19.7,30.08,ENE,59,0.0,0.0,38,0.00,,---,0.00,VWS V14.00,2013-03-17 06:22:00,
2013-03-16 23:27:00,43.2,19.6,30.08,ENE,59,0.0,0.0,38,0.00,,---,0.00,VWS V14.00,2013-03-17 06:27:00,
2013-03-16 23:32:00,42.8,19.9,30.09,ENE,59,0.0,0.0,40,0.00,,---,0.00,VWS V14.00,2013-03-17 06:32:00,
2013-03-16 23:37:00,43.6,20.0,30.09,East,82,4.0,9.0,38,0.00,,---,0.00,VWS V14.00,2013-03-17 06:37:00,
2013-03-16 23:42:00,45.0,20.6,30.09,East,84,1.0,4.0,38,0.00,,---,0.00,VWS V14.00,2013-03-17 06:42:00,
2013-03-16 23:47:00,43.5,19.9,30.09,East,84,7.0,7.0,38,0.00,,---,0.00,VWS V14.00,2013-03-17 06:47:00,
2013-03-16 23:52:00,43.8,20.2,30.10,East,84,4.0,8.0,38,0.00,,---,0.00,VWS V14.00,2013-03-17 06:52:00,
2013-03-16 23:57:00,44.2,20.5,30.09,East,88,5.0,9.0,38,0.00,,---,0.00,VWS V14.00,2013-03-17 06:57:00,